West Tisbury, MA

6:31 AM EDT on July 30, 2016 (GMT -0400)
Martha's Vineyard

Weather History for KMVY - March, 2014

Change the Weather History Date:

Tuesday, March 11, 2014

  Actual Average Record
Temperature  
Mean Temperature 46 °F -  
Max Temperature 57 °F 43 °F 59 °F (2007)
Min Temperature 33 °F 27 °F 4 °F (1984)
Degree Days  
Heating Degree Days 19    
Moisture  
Dew Point 33 °F    
Average Humidity 64    
Maximum Humidity 89    
Minimum Humidity 40    
Precipitation  
Precipitation 0.00 in - - ()
Sea Level Pressure  
Sea Level Pressure 29.61 in    
Wind  
Wind Speed 8 mph (WSW)    
Max Wind Speed 14 mph    
Max Gust Speed 20 mph    
Visibility 10 miles    
Events      
Averages and records for this station are not official NWS values.
T = Trace of Precipitation, MM = Missing Value Source: NWS Daily Summary

Daily Weather History Graph

Daily Weather History Graph

Search for Another Location

Airport or City:

Trip Planner

Search our weather history database for the weather conditions in past years. The results will help you decide how hot, cold, wet, or windy it might be!

Date:

Astronomy

Mar. 11, 2014 Rise Set
Actual Time 7:00 AM EDT 6:44 PM EDT
Civil Twilight 6:33 AM EDT 7:12 PM EDT
Nautical Twilight 6:01 AM EDT 7:44 PM EDT
Astronomical Twilight 5:29 AM EDT 8:16 PM EDT
Moon 2:15 PM EDT (3/11) 3:54 AM EDT (3/11)
Length of Visible Light 12h 38m
Length of Day
11h 43m
Waxing Gibbous, 78% of the Moon is Illuminated
Mar 11
Waxing Gibbous
Mar 16
Full
Mar 23
Last Quarter
Mar 30
New
Apr 7
First Quarter

Hourly Weather History & Observations

Time (EDT) Temp. Windchill Dew Point Humidity Pressure Visibility Wind Dir Wind Speed Gust Speed Precip Events Conditions
12:53 AM 37.9 °F 32.1 °F 34.0 °F 86% 29.66 in 9.0 mi South 8.1 mph - N/A   Overcast
1:53 AM 39.0 °F 31.8 °F 34.0 °F 82% 29.62 in 10.0 mi South 11.5 mph - N/A   Overcast
2:53 AM 39.0 °F 31.8 °F 35.1 °F 86% 29.59 in 9.0 mi South 11.5 mph - N/A   Overcast
3:53 AM 37.9 °F 30.9 °F 34.0 °F 86% 29.55 in 9.0 mi South 10.4 mph - N/A   Partly Cloudy
4:53 AM 37.0 °F 32.4 °F 34.0 °F 89% 29.54 in 8.0 mi SSW 5.8 mph - N/A   Clear
5:53 AM 39.9 °F 33.9 °F 36.0 °F 86% 29.54 in 9.0 mi SW 9.2 mph - N/A   Clear
6:53 AM 39.9 °F 36.7 °F 36.0 °F 86% 29.55 in 10.0 mi WSW 4.6 mph - N/A   Clear
7:53 AM 42.1 °F 37.7 °F 35.1 °F 76% 29.57 in 10.0 mi West 6.9 mph - N/A   Clear
8:53 AM 45.0 °F 42.6 °F 35.1 °F 68% 29.59 in 10.0 mi West 4.6 mph - N/A   Clear
9:53 AM 48.0 °F - 35.1 °F 61% 29.60 in 10.0 mi Variable 5.8 mph - N/A   Clear
10:53 AM 52.0 °F - 34.0 °F 50% 29.58 in 10.0 mi WNW 10.4 mph - N/A   Clear
11:53 AM 48.0 °F - 35.1 °F 61% 29.58 in 10.0 mi SW 4.6 mph - N/A   Partly Cloudy
12:53 PM 46.9 °F - 35.1 °F 63% 29.57 in 10.0 mi SW 4.6 mph - N/A   Clear
1:53 PM 54.0 °F - 35.1 °F 49% 29.57 in 10.0 mi SSW 9.2 mph - N/A   Clear
2:53 PM 55.9 °F - 34.0 °F 44% 29.57 in 10.0 mi West 10.4 mph - N/A   Clear
3:53 PM 55.9 °F - 34.0 °F 44% 29.57 in 10.0 mi West 13.8 mph 19.6 mph N/A   Clear
4:53 PM 55.9 °F - 32.0 °F 40% 29.59 in 10.0 mi West 12.7 mph 19.6 mph N/A   Clear
5:53 PM 54.0 °F - 32.0 °F 43% 29.62 in 10.0 mi West 10.4 mph - N/A   Clear
6:53 PM 52.0 °F - 30.9 °F 45% 29.65 in 10.0 mi West 10.4 mph - N/A   Clear
7:53 PM 51.1 °F - 30.0 °F 44% 29.68 in 10.0 mi West 5.8 mph - N/A   Clear
8:53 PM 46.9 °F - 30.0 °F 52% 29.70 in 10.0 mi WSW 5.8 mph - N/A   Clear
9:53 PM 44.1 °F 42.5 °F 30.0 °F 58% 29.72 in 10.0 mi SW 3.5 mph - N/A   Clear
10:53 PM 37.0 °F 34.5 °F 27.0 °F 67% 29.73 in 10.0 mi West 3.5 mph - N/A   Clear
11:53 PM 33.1 °F - 27.0 °F 78% 29.72 in 10.0 mi Calm Calm - N/A   Clear